This demonstration page uses our WeatherBlox Daily Observations layout. Learn more.

Left ArrowRight Arrow

Hourly Observations for May 24, 2021

Temp ( °F °C ) Dew Point ( °F °C ) Humidity (%) Winds ( mph kmh ) Pressure ( in mb ) Visibility ( mi km ) Precip ( " mm )
12:15 am 00:15 Mostly Cloudy 67 19.4 60 15.6 79 79 Calm 30.16 1021 10 16 0.00 0.00
12:35 am 00:35 Cloudy 69 20.4 61 16 76 76 NW 3 6 30.15 1021 10 16 0.00 0.00
12:55 am 00:55 Cloudy 69 20.6 62 16.5 77 77 Calm 30.15 1021 10 16 0.00 0.00
1:15 am 01:15 Cloudy 69 20.5 62 16.6 78 78 Calm 30.14 1021 10 16 0.00 0.00
1:35 am 01:35 Partly Cloudy 68 20 61 16.1 78 78 Calm 30.15 1021 10 16 0.00 0.00
1:55 am 01:55 Clear 67 19.5 61 16.3 82 82 Calm 30.14 1021 10 16 0.00 0.00
2:15 am 02:15 Clear 66 18.8 60 15.7 82 82 Calm 30.14 1021 10 16 0.00 0.00
2:35 am 02:35 Partly Cloudy 66 18.7 62 16.5 87 87 Calm 30.14 1021 10 16 0.00 0.00
2:55 am 02:55 Cloudy 65 18.5 61 16.3 87 87 Calm 30.14 1021 10 16 0.00 0.00
3:10 am 03:10 Cloudy 65 18.4 61 16.1 87 87 Calm 30.13 1020 10 16 0.00 0.00
3:35 am 03:35 Partly Cloudy 65 18.5 61 15.9 85 85 Calm 30.12 1020 10 16 0.00 0.00
3:55 am 03:55 Mostly Cloudy 65 18.2 61 16.1 88 88 Calm 30.12 1020 10 16 0.00 0.00
4:15 am 04:15 Cloudy 64 18 61 16.2 89 89 Calm 30.13 1020 10 16 0.00 0.00
4:35 am 04:35 Cloudy 65 18.1 62 16.4 90 90 Calm 30.12 1020 10 16 0.00 0.00
4:55 am 04:55 Partly Cloudy 65 18.3 61 16.2 88 88 Calm 30.12 1020 10 16 0.00 0.00
5:15 am 05:15 Clear 64 18 61 15.9 88 88 Calm 30.12 1020 10 16 0.00 0.00
5:35 am 05:35 Clear 64 18 61 16 88 88 Calm 30.13 1020 10 16 0.00 0.00
5:55 am 05:55 Clear 64 17.7 61 15.9 89 89 Calm 30.13 1020 10 16 0.00 0.00
6:15 am 06:15 Partly Cloudy 64 17.7 61 16 90 90 Calm 30.14 1021 10 16 0.00 0.00
6:35 am 06:35 Partly Cloudy 64 17.6 61 16.1 91 91 Calm 30.15 1021 10 16 0.00 0.00
6:55 am 06:55 Mostly Cloudy 63 17.4 60 15.6 89 89 Calm 30.17 1022 10 16 0.00 0.00
7:15 am 07:15 Cloudy 64 17.9 61 16 89 89 Calm 30.17 1022 10 16 0.00 0.00
7:35 am 07:35 Mostly Cloudy 65 18.2 61 16.2 88 88 S 3 6 30.17 1022 10 16 0.00 0.00
7:55 am 07:55 Cloudy 66 19 62 16.6 86 86 Calm 30.17 1022 10 16 0.00 0.00
8:15 am 08:15 Cloudy 68 20.2 62 16.4 79 79 SW 3 6 30.18 1022 10 16 0.00 0.00
8:35 am 08:35 Cloudy 69 20.8 62 16.7 77 77 WSW 3 6 30.18 1022 10 16 0.00 0.00
8:55 am 08:55 Mostly Cloudy 70 21.3 63 17.1 77 77 WSW 3 6 30.18 1022 10 16 0.00 0.00
9:15 am 09:15 Mostly Cloudy 73 22.8 63 17.4 72 72 Calm 30.18 1022 10 16 0.00 0.00
9:35 am 09:35 Mostly Cloudy 75 23.8 64 17.5 68 68 Calm 30.17 1022 10 16 0.00 0.00
9:55 am 09:55 Mostly Cloudy 77 25.2 65 18.1 65 65 Calm 30.17 1022 10 16 0.00 0.00
10:15 am 10:15 Cloudy 78 25.8 63 17.1 59 59 WSW 5 7 30.17 1022 10 16 0.00 0.00
10:35 am 10:35 Cloudy 79 26.1 63 17.2 58 58 SW 5 7 30.17 1022 10 16 0.00 0.00
10:55 am 10:55 Cloudy 80 26.8 62 16.5 53 53 W 7 11 30.16 1021 10 16 0.00 0.00
11:15 am 11:15 Cloudy 81 27.1 61 16 51 51 W 6 9 30.16 1021 10 16 0.00 0.00
11:35 am 11:35 Mostly Cloudy 82 27.8 60 15.8 48 48 WSW 6 9 30.16 1021 10 16 0.00 0.00
11:55 am 11:55 Partly Cloudy 83 28.4 60 15.3 45 45 W 9 15 30.16 1021 10 16 0.00 0.00
12:15 pm 12:15 Partly Cloudy 83 28.2 59 14.8 44 44 SW 5 7 30.14 1021 10 16 0.00 0.00
12:35 pm 12:35 Mostly Cloudy 83 28.2 59 15.1 45 45 W 9 15 30.14 1021 10 16 0.00 0.00
12:55 pm 12:55 Partly Cloudy 84 28.8 59 14.9 43 43 NW 7 11 30.14 1021 10 16 0.00 0.00
1:15 pm 13:15 Mostly Cloudy 82 28 58 14.3 43 43 WSW 3 6 30.13 1020 10 16 0.00 0.00
1:35 pm 13:35 Mostly Cloudy 86 29.8 58 14.4 39 39 SW 10 17 30.11 1020 10 16 0.00 0.00
1:55 pm 13:55 Partly Cloudy 85 29.4 56 13.5 38 38 SW 7 11 30.11 1019 10 16 0.00 0.00
2:15 pm 14:15 Sunny 86 29.9 57 13.8 37 37 WSW 10 17 30.10 1019 10 16 0.00 0.00
2:35 pm 14:35 Sunny 85 29.6 55 12.9 36 36 WSW 10 17 30.11 1019 10 16 0.00 0.00
2:55 pm 14:55 Partly Cloudy 85 29.5 57 13.9 38 38 WSW 10 17 30.11 1019 10 16 0.00 0.00
3:15 pm 15:15 Partly Cloudy 84 29.1 57 14 40 40 WSW 9 15 30.10 1019 10 16 0.00 0.00
3:35 pm 15:35 Sunny 86 30 56 13.5 36 36 WSW 7 11 30.09 1019 10 16 0.00 0.00
3:55 pm 15:55 Sunny 85 29.6 57 13.7 38 38 SW 10 17 30.09 1019 10 16 0.00 0.00
4:15 pm 16:15 Partly Cloudy 85 29.7 56 13.5 37 37 SW 7 11 30.07 1018 10 16 0.00 0.00
4:35 pm 16:35 Sunny 87 30.3 55 12.7 34 34 W 12 19 30.07 1018 10 16 0.00 0.00
4:55 pm 16:55 Sunny 85 29.7 56 13.3 37 37 WSW 10 17 30.06 1018 10 16 0.00 0.00
5:15 pm 17:15 Mostly Cloudy 85 29.6 56 13.3 37 37 WSW 6 9 30.07 1018 10 16 0.00 0.00
5:35 pm 17:35 Partly Cloudy 86 30.2 56 13.6 36 36 SSW 9 15 30.05 1018 10 16 0.00 0.00
5:55 pm 17:55 Sunny 86 30.2 56 13.5 36 36 SW 12 19 30.05 1018 10 16 0.00 0.00
6:15 pm 18:15 Partly Cloudy 86 29.8 56 13.1 36 36 SW 9 15 30.05 1018 10 16 0.00 0.00
6:35 pm 18:35 Sunny 85 29.7 55 12.7 35 35 SW 12 19 30.05 1018 10 16 0.00 0.00
6:55 pm 18:55 Sunny 85 29.3 56 13.1 37 37 SW 9 15 30.05 1017 10 16 0.00 0.00
7:15 pm 19:15 Sunny 85 29.5 55 12.6 35 35 SW 8 13 30.05 1017 10 16 0.00 0.00
7:35 pm 19:35 Sunny 84 28.9 54 12.1 35 35 SW 10 17 30.05 1018 10 16 0.00 0.00
7:55 pm 19:55 Sunny 83 28.6 56 13.1 38 38 SW 10 17 30.06 1018 10 16 0.00 0.00
8:15 pm 20:15 Sunny 82 27.6 56 13.5 42 42 SW 8 13 30.06 1018 10 16 0.00 0.00
8:35 pm 20:35 Sunny 80 26.6 57 13.7 45 45 SW 6 9 30.06 1018 10 16 0.00 0.00
8:55 pm 20:55 Sunny 78 25.5 57 14 49 49 SW 5 7 30.07 1018 10 16 0.00 0.00
9:15 pm 21:15 Clear 77 24.8 58 14.2 52 52 SW 3 6 30.07 1018 10 16 0.00 0.00
9:35 pm 21:35 Clear 76 24.4 57 14.1 53 53 WSW 3 6 30.08 1019 10 16 0.00 0.00
9:55 pm 21:55 Clear 75 23.7 58 14.2 55 55 SW 5 7 30.08 1019 10 16 0.00 0.00
10:15 pm 22:15 Clear 74 23.1 57 13.8 56 56 SSW 5 7 30.10 1019 10 16 0.00 0.00
10:35 pm 22:35 Clear 73 22.7 57 14.1 58 58 SSW 5 7 30.10 1019 10 16 0.00 0.00
10:55 pm 22:55 Clear 71 21.9 57 14.1 61 61 SSW 5 7 30.10 1019 10 16 0.00 0.00
11:15 pm 23:15 Clear 70 21.3 59 14.8 67 67 SSW 3 6 30.11 1020 10 16 0.00 0.00
11:35 pm 23:35 Clear 71 21.6 58 14.5 64 64 Calm 30.11 1020 10 16 0.00 0.00
11:55 pm 23:55 Clear 69 20.8 58 14.7 68 68 SW 3 6 30.11 1020 10 16 0.00 0.00

Powered by AerisWeather